Year,Month,Day,Hour,Minute,Value (Times are PST for temperature in C)
2006,09,27,00,00,11.90
2006,09,27,00,01,11.90
2006,09,27,00,02,11.90
2006,09,27,00,03,11.90
2006,09,27,00,04,11.90
2006,09,27,00,05,11.90
2006,09,27,00,06,11.90
2006,09,27,00,07,11.90
2006,09,27,00,08,11.90
2006,09,27,00,09,11.90
2006,09,27,00,10,11.90
2006,09,27,00,11,11.90
2006,09,27,00,12,11.80
2006,09,27,00,13,11.80
2006,09,27,00,14,11.80
2006,09,27,00,15,11.80
2006,09,27,00,16,11.80
2006,09,27,00,17,11.80
2006,09,27,00,18,11.80
2006,09,27,00,19,11.80
2006,09,27,00,20,11.80
2006,09,27,00,21,11.80
2006,09,27,00,22,11.80
2006,09,27,00,23,11.70
2006,09,27,00,24,11.70
2006,09,27,00,25,11.70
2006,09,27,00,26,11.70
2006,09,27,00,27,11.70
2006,09,27,00,28,11.70
2006,09,27,00,29,11.70
2006,09,27,00,30,11.70
2006,09,27,00,31,11.70
2006,09,27,00,32,11.60
2006,09,27,00,33,11.60
2006,09,27,00,34,11.60
2006,09,27,00,35,11.60
2006,09,27,00,36,11.60
2006,09,27,00,37,11.60
2006,09,27,00,38,11.60
2006,09,27,00,39,11.60
2006,09,27,00,40,11.60
2006,09,27,00,41,11.60
2006,09,27,00,42,11.50
2006,09,27,00,43,11.50
2006,09,27,00,44,11.50
2006,09,27,00,45,11.50
2006,09,27,00,46,11.50
2006,09,27,00,47,11.50
2006,09,27,00,48,11.40
2006,09,27,00,49,11.40
2006,09,27,00,50,11.40
2006,09,27,00,51,11.40
2006,09,27,00,52,11.40
2006,09,27,00,53,11.40
2006,09,27,00,54,11.40
2006,09,27,00,55,11.40
2006,09,27,00,56,11.40
2006,09,27,00,57,11.40
2006,09,27,00,58,11.30
2006,09,27,00,59,11.30
2006,09,27,01,00,11.30
2006,09,27,01,01,11.30
2006,09,27,01,02,11.30
2006,09,27,01,03,11.30
2006,09,27,01,04,11.30
2006,09,27,01,05,11.30
2006,09,27,01,06,11.30
2006,09,27,01,07,11.30
2006,09,27,01,08,11.20
2006,09,27,01,09,11.20
2006,09,27,01,10,11.20
2006,09,27,01,11,11.20
2006,09,27,01,12,11.20
2006,09,27,01,13,11.20
2006,09,27,01,14,11.20
2006,09,27,01,15,11.20
2006,09,27,01,16,11.20
2006,09,27,01,17,11.20
2006,09,27,01,18,11.10
2006,09,27,01,19,11.10
2006,09,27,01,20,11.10
2006,09,27,01,21,11.10
2006,09,27,01,22,11.10
2006,09,27,01,23,11.10
2006,09,27,01,24,11.10
2006,09,27,01,25,11.10
2006,09,27,01,26,11.10
2006,09,27,01,27,11.10
2006,09,27,01,28,11.10
2006,09,27,01,29,11.10
2006,09,27,01,30,11.10
2006,09,27,01,31,11.10
2006,09,27,01,32,11.10
2006,09,27,01,33,11.00
2006,09,27,01,34,11.00
2006,09,27,01,35,11.00
2006,09,27,01,36,11.00
2006,09,27,01,37,11.00
2006,09,27,01,38,11.00
2006,09,27,01,39,10.90
2006,09,27,01,40,10.90
2006,09,27,01,41,10.90
2006,09,27,01,42,10.90
2006,09,27,01,43,10.90
2006,09,27,01,44,10.90
2006,09,27,01,45,10.90
2006,09,27,01,46,10.80
2006,09,27,01,47,10.80
2006,09,27,01,48,10.80
2006,09,27,01,49,10.80
2006,09,27,01,50,10.80
2006,09,27,01,51,10.80
2006,09,27,01,52,10.80
2006,09,27,01,53,10.80
2006,09,27,01,54,10.80
2006,09,27,01,55,10.80
2006,09,27,01,56,10.80
2006,09,27,01,57,10.80
2006,09,27,01,58,10.80
2006,09,27,01,59,10.80
2006,09,27,02,00,10.70
2006,09,27,02,01,10.70
2006,09,27,02,02,10.70
2006,09,27,02,03,10.70
2006,09,27,02,04,10.70
2006,09,27,02,05,10.70
2006,09,27,02,06,10.70
2006,09,27,02,07,10.70
2006,09,27,02,08,10.70
2006,09,27,02,09,10.70
2006,09,27,02,10,10.70
2006,09,27,02,11,10.70
2006,09,27,02,12,10.70
2006,09,27,02,13,10.70
2006,09,27,02,14,10.70
2006,09,27,02,15,10.70
2006,09,27,02,16,10.70
2006,09,27,02,17,10.60
2006,09,27,02,18,10.60
2006,09,27,02,19,10.60
2006,09,27,02,20,10.60
2006,09,27,02,21,10.60
2006,09,27,02,22,10.60
2006,09,27,02,23,10.60
2006,09,27,02,24,10.60
2006,09,27,02,25,10.60
2006,09,27,02,26,10.60
2006,09,27,02,27,10.60
2006,09,27,02,28,10.60
2006,09,27,02,29,10.60
2006,09,27,02,30,10.60
2006,09,27,02,31,10.60
2006,09,27,02,32,10.60
2006,09,27,02,33,10.60
2006,09,27,02,34,10.50
2006,09,27,02,35,10.50
2006,09,27,02,36,10.50
2006,09,27,02,37,10.50
2006,09,27,02,38,10.50
2006,09,27,02,39,10.50
2006,09,27,02,40,10.50
2006,09,27,02,41,10.50
2006,09,27,02,42,10.50
2006,09,27,02,43,10.40
2006,09,27,02,44,10.40
2006,09,27,02,45,10.40
2006,09,27,02,46,10.40
2006,09,27,02,47,10.40
2006,09,27,02,48,10.40
2006,09,27,02,49,10.40
2006,09,27,02,50,10.40
2006,09,27,02,51,10.40
2006,09,27,02,52,10.40
2006,09,27,02,53,10.40
2006,09,27,02,54,10.40
2006,09,27,02,55,10.40
2006,09,27,02,56,10.30
2006,09,27,02,57,10.30
2006,09,27,02,58,10.30
2006,09,27,02,59,10.30
2006,09,27,03,00,10.30
2006,09,27,03,01,10.30
2006,09,27,03,02,10.30
2006,09,27,03,03,10.30
2006,09,27,03,04,10.30
2006,09,27,03,05,10.30
2006,09,27,03,06,10.30
2006,09,27,03,07,10.30
2006,09,27,03,08,10.30
2006,09,27,03,09,10.30
2006,09,27,03,10,10.30
2006,09,27,03,11,10.30
2006,09,27,03,12,10.30
2006,09,27,03,13,10.30
2006,09,27,03,14,10.30
2006,09,27,03,15,10.30
2006,09,27,03,16,10.30
2006,09,27,03,17,10.20
2006,09,27,03,18,10.20
2006,09,27,03,19,10.20
2006,09,27,03,20,10.20
2006,09,27,03,21,10.20
2006,09,27,03,22,10.20
2006,09,27,03,23,10.20
2006,09,27,03,24,10.20
2006,09,27,03,25,10.20
2006,09,27,03,26,10.20
2006,09,27,03,27,10.20
2006,09,27,03,28,10.20
2006,09,27,03,29,10.20
2006,09,27,03,30,10.20
2006,09,27,03,31,10.20
2006,09,27,03,32,10.20
2006,09,27,03,33,10.20
2006,09,27,03,34,10.20
2006,09,27,03,35,10.20
2006,09,27,03,36,10.20
2006,09,27,03,37,10.20
2006,09,27,03,38,10.20
2006,09,27,03,39,10.20
2006,09,27,03,40,10.10
2006,09,27,03,41,10.10
2006,09,27,03,42,10.20
2006,09,27,03,43,10.10
2006,09,27,03,44,10.10
2006,09,27,03,45,10.10
2006,09,27,03,46,10.10
2006,09,27,03,47,10.10
2006,09,27,03,48,10.10
2006,09,27,03,49,10.10
2006,09,27,03,50,10.10
2006,09,27,03,51,10.10
2006,09,27,03,52,10.10
2006,09,27,03,53,10.10
2006,09,27,03,54,10.10
2006,09,27,03,55,10.10
2006,09,27,03,56,10.00
2006,09,27,03,57,10.00
2006,09,27,03,58,10.00
2006,09,27,03,59,10.00
2006,09,27,04,00,10.00
2006,09,27,04,01,10.00
2006,09,27,04,02,10.00
2006,09,27,04,03,10.00
2006,09,27,04,04,10.00
2006,09,27,04,05,9.90
2006,09,27,04,06,9.90
2006,09,27,04,07,9.90
2006,09,27,04,08,9.90
2006,09,27,04,09,9.90
2006,09,27,04,10,9.90
2006,09,27,04,11,9.90
2006,09,27,04,12,9.90
2006,09,27,04,13,9.90
2006,09,27,04,14,9.90
2006,09,27,04,15,9.90
2006,09,27,04,16,9.90
2006,09,27,04,17,9.90
2006,09,27,04,18,9.90
2006,09,27,04,19,9.90
2006,09,27,04,20,9.90
2006,09,27,04,21,9.90
2006,09,27,04,22,9.90
2006,09,27,04,23,9.90
2006,09,27,04,24,9.90
2006,09,27,04,25,9.90
2006,09,27,04,26,9.90
2006,09,27,04,27,9.90
2006,09,27,04,28,9.90
2006,09,27,04,29,9.90
2006,09,27,04,30,9.90
2006,09,27,04,31,9.90
2006,09,27,04,32,9.90
2006,09,27,04,33,9.90
2006,09,27,04,34,9.80
2006,09,27,04,35,9.80
2006,09,27,04,36,9.80
2006,09,27,04,37,9.80
2006,09,27,04,38,9.80
2006,09,27,04,39,9.80
2006,09,27,04,40,9.80
2006,09,27,04,41,9.80
2006,09,27,04,42,9.80
2006,09,27,04,43,9.80
2006,09,27,04,44,9.80
2006,09,27,04,45,9.80
2006,09,27,04,46,9.80
2006,09,27,04,47,9.80
2006,09,27,04,48,9.80
2006,09,27,04,49,9.80
2006,09,27,04,50,9.80
2006,09,27,04,51,9.80
2006,09,27,04,52,9.80
2006,09,27,04,53,9.80
2006,09,27,04,54,9.80
2006,09,27,04,55,9.80
2006,09,27,04,56,9.80
2006,09,27,04,57,9.80
2006,09,27,04,58,9.80
2006,09,27,04,59,9.80
2006,09,27,05,00,9.80
2006,09,27,05,01,9.80
2006,09,27,05,02,9.80
2006,09,27,05,03,9.80
2006,09,27,05,04,9.80
2006,09,27,05,05,9.80
2006,09,27,05,06,9.80
2006,09,27,05,07,9.80
2006,09,27,05,08,9.80
2006,09,27,05,09,9.80
2006,09,27,05,10,9.80
2006,09,27,05,11,9.80
2006,09,27,05,12,9.80
2006,09,27,05,13,9.80
2006,09,27,05,14,9.80
2006,09,27,05,15,9.80
2006,09,27,05,16,9.80
2006,09,27,05,17,9.70
2006,09,27,05,18,9.70
2006,09,27,05,19,9.70
2006,09,27,05,20,9.70
2006,09,27,05,21,9.70
2006,09,27,05,22,9.70
2006,09,27,05,23,9.70
2006,09,27,05,24,9.70
2006,09,27,05,25,9.70
2006,09,27,05,26,9.70
2006,09,27,05,27,9.70
2006,09,27,05,28,9.70
2006,09,27,05,29,9.70
2006,09,27,05,30,9.70
2006,09,27,05,31,9.70
2006,09,27,05,32,9.70
2006,09,27,05,33,9.70
2006,09,27,05,34,9.70
2006,09,27,05,35,9.60
2006,09,27,05,36,9.60
2006,09,27,05,37,9.60
2006,09,27,05,38,9.60
2006,09,27,05,39,9.60
2006,09,27,05,40,9.60
2006,09,27,05,41,9.60
2006,09,27,05,42,9.60
2006,09,27,05,43,9.60
2006,09,27,05,44,9.60
2006,09,27,05,45,9.60
2006,09,27,05,46,9.60
2006,09,27,05,47,9.60
2006,09,27,05,48,9.60
2006,09,27,05,49,9.60
2006,09,27,05,50,9.60
2006,09,27,05,51,9.60
2006,09,27,05,52,9.60
2006,09,27,05,53,9.60
2006,09,27,05,54,9.60
2006,09,27,05,55,9.60
2006,09,27,05,56,9.50
2006,09,27,05,57,9.60
2006,09,27,05,58,9.60
2006,09,27,05,59,9.60
2006,09,27,06,00,9.60
2006,09,27,06,01,9.50
2006,09,27,06,02,9.50
2006,09,27,06,03,9.50
2006,09,27,06,04,9.50
2006,09,27,06,05,9.50
2006,09,27,06,06,9.50
2006,09,27,06,07,9.50
2006,09,27,06,08,9.50
2006,09,27,06,09,9.50
2006,09,27,06,10,9.50
2006,09,27,06,11,9.50
2006,09,27,06,12,9.50
2006,09,27,06,13,9.50
2006,09,27,06,14,9.40
2006,09,27,06,15,9.40
2006,09,27,06,16,9.40
2006,09,27,06,17,9.40
2006,09,27,06,18,9.40
2006,09,27,06,19,9.40
2006,09,27,06,20,9.40
2006,09,27,06,21,9.40
2006,09,27,06,22,9.40
2006,09,27,06,23,9.40
2006,09,27,06,24,9.40
2006,09,27,06,25,9.40
2006,09,27,06,26,9.40
2006,09,27,06,27,9.40
2006,09,27,06,28,9.40
2006,09,27,06,29,9.40
2006,09,27,06,30,9.40
2006,09,27,06,31,9.40
2006,09,27,06,32,9.40
2006,09,27,06,33,9.40
2006,09,27,06,34,9.40
2006,09,27,06,35,9.40
2006,09,27,06,36,9.30
2006,09,27,06,37,9.30
2006,09,27,06,38,9.30
2006,09,27,06,39,9.30
2006,09,27,06,40,9.30
2006,09,27,06,41,9.30
2006,09,27,06,42,9.30
2006,09,27,06,43,9.30
2006,09,27,06,44,9.30
2006,09,27,06,45,9.30
2006,09,27,06,46,9.30
2006,09,27,06,47,9.30
2006,09,27,06,48,9.30
2006,09,27,06,49,9.30
2006,09,27,06,50,9.30
2006,09,27,06,51,9.30
2006,09,27,06,52,9.30
2006,09,27,06,53,9.30
2006,09,27,06,54,9.30
2006,09,27,06,55,9.30
2006,09,27,06,56,9.30
2006,09,27,06,57,9.30
2006,09,27,06,58,9.30
2006,09,27,06,59,9.30
2006,09,27,07,00,9.30
2006,09,27,07,01,9.30
2006,09,27,07,02,9.30
2006,09,27,07,03,9.30
2006,09,27,07,04,9.30
2006,09,27,07,05,9.30
2006,09,27,07,06,9.30
2006,09,27,07,07,9.30
2006,09,27,07,08,9.30
2006,09,27,07,09,9.30
2006,09,27,07,10,9.20
2006,09,27,07,11,9.20
2006,09,27,07,12,9.20
2006,09,27,07,13,9.20
2006,09,27,07,14,9.20
2006,09,27,07,15,9.20
2006,09,27,07,16,9.20
2006,09,27,07,17,9.20
2006,09,27,07,18,9.20
2006,09,27,07,19,9.20
2006,09,27,07,20,9.20
2006,09,27,07,21,9.20
2006,09,27,07,22,9.20
2006,09,27,07,23,9.20
2006,09,27,07,24,9.20
2006,09,27,07,25,9.20
2006,09,27,07,26,9.20
2006,09,27,07,27,9.20
2006,09,27,07,28,9.20
2006,09,27,07,29,9.20
2006,09,27,07,30,9.20
2006,09,27,07,31,9.10
2006,09,27,07,32,9.20
2006,09,27,07,33,9.20
2006,09,27,07,34,9.20
2006,09,27,07,35,9.10
2006,09,27,07,36,9.10
2006,09,27,07,37,9.10
2006,09,27,07,38,9.10
2006,09,27,07,39,9.10
2006,09,27,07,40,9.10
2006,09,27,07,41,9.10
2006,09,27,07,42,9.20
2006,09,27,07,43,9.10
2006,09,27,07,44,9.20
2006,09,27,07,45,9.20
2006,09,27,07,46,9.20
2006,09,27,07,47,9.20
2006,09,27,07,48,9.20
2006,09,27,07,49,9.20
2006,09,27,07,50,9.20
2006,09,27,07,51,9.20
2006,09,27,07,52,9.20
2006,09,27,07,53,9.20
2006,09,27,07,54,9.20
2006,09,27,07,55,9.20
2006,09,27,07,56,9.20
2006,09,27,07,57,9.20
2006,09,27,07,58,9.20
2006,09,27,07,59,9.20
2006,09,27,08,00,9.20
2006,09,27,08,01,9.20
2006,09,27,08,02,9.20
2006,09,27,08,03,9.30
2006,09,27,08,04,9.30
2006,09,27,08,05,9.30
2006,09,27,08,06,9.30
2006,09,27,08,07,9.30
2006,09,27,08,08,9.30
2006,09,27,08,09,9.30
2006,09,27,08,10,9.40
2006,09,27,08,11,9.40
2006,09,27,08,12,9.50
2006,09,27,08,13,9.50
2006,09,27,08,14,9.50
2006,09,27,08,15,9.50
2006,09,27,08,16,9.60
2006,09,27,08,17,9.60
2006,09,27,08,18,9.60
2006,09,27,08,19,9.60
2006,09,27,08,20,9.60
2006,09,27,08,21,9.60
2006,09,27,08,22,9.70
2006,09,27,08,23,9.70
2006,09,27,08,24,9.80
2006,09,27,08,25,9.80
2006,09,27,08,26,9.90
2006,09,27,08,27,9.90
2006,09,27,08,28,10.00
2006,09,27,08,29,10.10
2006,09,27,08,30,10.10
2006,09,27,08,31,10.20
2006,09,27,08,32,10.20
2006,09,27,08,33,10.30
2006,09,27,08,34,10.40
2006,09,27,08,35,10.40
2006,09,27,08,36,10.50
2006,09,27,08,37,10.50
2006,09,27,08,38,10.60
2006,09,27,08,39,10.60
2006,09,27,08,40,10.70
2006,09,27,08,41,10.80
2006,09,27,08,42,10.90
2006,09,27,08,43,10.90
2006,09,27,08,44,11.00
2006,09,27,08,45,11.10
2006,09,27,08,46,11.10
2006,09,27,08,47,11.20
2006,09,27,08,48,11.30
2006,09,27,08,49,11.30
2006,09,27,08,50,11.40
2006,09,27,08,51,11.40
2006,09,27,08,52,11.50
2006,09,27,08,53,11.50
2006,09,27,08,54,11.60
2006,09,27,08,55,11.60
2006,09,27,08,56,11.70
2006,09,27,08,57,11.70
2006,09,27,08,58,11.80
2006,09,27,08,59,11.90
2006,09,27,09,00,11.90
2006,09,27,09,01,12.00
2006,09,27,09,02,12.10
2006,09,27,09,03,12.10
2006,09,27,09,04,12.20
2006,09,27,09,05,12.20
2006,09,27,09,06,12.20
2006,09,27,09,07,12.30
2006,09,27,09,08,12.30
2006,09,27,09,09,12.40
2006,09,27,09,10,12.50
2006,09,27,09,11,12.50
2006,09,27,09,12,12.60
2006,09,27,09,13,12.70
2006,09,27,09,14,12.70
2006,09,27,09,15,12.80
2006,09,27,09,16,12.90
2006,09,27,09,17,13.00
2006,09,27,09,18,13.10
2006,09,27,09,19,13.20
2006,09,27,09,20,13.30
2006,09,27,09,21,13.40
2006,09,27,09,22,13.50
2006,09,27,09,23,13.60
2006,09,27,09,24,13.70
2006,09,27,09,25,13.90
2006,09,27,09,26,14.00
2006,09,27,09,27,14.10
2006,09,27,09,28,14.30
2006,09,27,09,29,14.40
2006,09,27,09,30,14.60
2006,09,27,09,31,14.80
2006,09,27,09,32,15.00
2006,09,27,09,33,15.00
2006,09,27,09,34,15.10
2006,09,27,09,35,15.30
2006,09,27,09,36,15.40
2006,09,27,09,37,15.60
2006,09,27,09,38,15.70
2006,09,27,09,39,15.80
2006,09,27,09,40,15.90
2006,09,27,09,41,16.00
2006,09,27,09,42,16.10
2006,09,27,09,43,16.20
2006,09,27,09,44,16.30
2006,09,27,09,45,16.30
2006,09,27,09,46,16.50
2006,09,27,09,47,16.60
2006,09,27,09,48,16.70
2006,09,27,09,49,16.80
2006,09,27,09,50,16.90
2006,09,27,09,51,16.90
2006,09,27,09,52,17.00
2006,09,27,09,53,17.10
2006,09,27,09,54,17.20
2006,09,27,09,55,17.30
2006,09,27,09,56,17.50
2006,09,27,09,57,17.60
2006,09,27,09,58,17.70
2006,09,27,09,59,17.80
2006,09,27,10,00,17.80
2006,09,27,10,01,17.90
2006,09,27,10,02,17.90
2006,09,27,10,03,18.00
2006,09,27,10,04,18.00
2006,09,27,10,05,18.00
2006,09,27,10,06,18.10
2006,09,27,10,07,18.10
2006,09,27,10,08,18.10
2006,09,27,10,09,18.20
2006,09,27,10,10,18.30
2006,09,27,10,11,18.30
2006,09,27,10,12,18.40
2006,09,27,10,13,18.50
2006,09,27,10,14,18.60
2006,09,27,10,15,18.60
2006,09,27,10,16,18.70
2006,09,27,10,17,18.70
2006,09,27,10,18,18.80
2006,09,27,10,19,18.90
2006,09,27,10,20,18.90
2006,09,27,10,21,19.00
2006,09,27,10,22,19.00
2006,09,27,10,23,19.10
2006,09,27,10,24,19.20
2006,09,27,10,25,19.20
2006,09,27,10,26,19.20
2006,09,27,10,27,19.20
2006,09,27,10,28,19.30
2006,09,27,10,29,19.30
2006,09,27,10,30,19.40
2006,09,27,10,31,19.40
2006,09,27,10,32,19.50
2006,09,27,10,33,19.50
2006,09,27,10,34,19.50
2006,09,27,10,35,19.50
2006,09,27,10,36,19.50
2006,09,27,10,37,19.50
2006,09,27,10,38,19.60
2006,09,27,10,39,19.70
2006,09,27,10,40,19.80
2006,09,27,10,41,19.80
2006,09,27,10,42,19.90
2006,09,27,10,43,19.90
2006,09,27,10,44,20.00
2006,09,27,10,45,20.10
2006,09,27,10,46,20.10
2006,09,27,10,47,20.10
2006,09,27,10,48,20.20
2006,09,27,10,49,20.20
2006,09,27,10,50,20.20
2006,09,27,10,51,20.30
2006,09,27,10,52,20.30
2006,09,27,10,53,20.40
2006,09,27,10,54,20.40
2006,09,27,10,55,20.50
2006,09,27,10,56,20.50
2006,09,27,10,57,20.60
2006,09,27,10,58,20.60
2006,09,27,10,59,20.70
2006,09,27,11,00,20.80
2006,09,27,11,01,20.90
2006,09,27,11,02,20.90
2006,09,27,11,03,21.00
2006,09,27,11,04,21.10
2006,09,27,11,05,21.20
2006,09,27,11,06,21.30
2006,09,27,11,07,21.40
2006,09,27,11,08,21.40
2006,09,27,11,09,21.40
2006,09,27,11,10,21.50
2006,09,27,11,11,21.50
2006,09,27,11,12,21.50
2006,09,27,11,13,21.50
2006,09,27,11,14,21.60
2006,09,27,11,15,21.60
2006,09,27,11,16,21.70
2006,09,27,11,17,21.70
2006,09,27,11,18,21.80
2006,09,27,11,19,21.80
2006,09,27,11,20,21.90
2006,09,27,11,21,22.00
2006,09,27,11,22,22.10
2006,09,27,11,23,22.10
2006,09,27,11,24,22.20
2006,09,27,11,25,22.20
2006,09,27,11,26,22.10
2006,09,27,11,27,22.20
2006,09,27,11,28,22.20
2006,09,27,11,29,22.20
2006,09,27,11,30,22.30
2006,09,27,11,31,22.30
2006,09,27,11,32,22.40
2006,09,27,11,33,22.50
2006,09,27,11,34,22.60
2006,09,27,11,35,22.70
2006,09,27,11,36,22.80
2006,09,27,11,37,22.90
2006,09,27,11,38,22.90
2006,09,27,11,39,23.00
2006,09,27,11,40,23.00
2006,09,27,11,41,22.90
2006,09,27,11,42,22.90
2006,09,27,11,43,22.80
2006,09,27,11,44,22.80
2006,09,27,11,45,22.70
2006,09,27,11,46,22.70
2006,09,27,11,47,22.80
2006,09,27,11,48,22.90
2006,09,27,11,49,22.90
2006,09,27,11,50,23.00
2006,09,27,11,51,23.00
2006,09,27,11,52,23.10
2006,09,27,11,53,23.10
2006,09,27,11,54,23.10
2006,09,27,11,55,23.10
2006,09,27,11,56,23.20
2006,09,27,11,57,23.30
2006,09,27,11,58,23.40
2006,09,27,11,59,23.40
2006,09,27,12,00,23.40
2006,09,27,12,01,23.50
2006,09,27,12,02,23.60
2006,09,27,12,03,23.60
2006,09,27,12,04,23.70
2006,09,27,12,05,23.70
2006,09,27,12,06,23.80
2006,09,27,12,07,23.80
2006,09,27,12,08,23.90
2006,09,27,12,09,23.90
2006,09,27,12,10,23.90
2006,09,27,12,11,23.90
2006,09,27,12,12,24.00
2006,09,27,12,13,24.10
2006,09,27,12,14,24.20
2006,09,27,12,15,24.20
2006,09,27,12,16,24.20
2006,09,27,12,17,24.20
2006,09,27,12,18,24.20
2006,09,27,12,19,24.20
2006,09,27,12,20,24.20
2006,09,27,12,21,24.20
2006,09,27,12,22,24.30
2006,09,27,12,23,24.30
2006,09,27,12,24,24.30
2006,09,27,12,25,24.40
2006,09,27,12,26,24.50
2006,09,27,12,27,24.60
2006,09,27,12,28,24.70
2006,09,27,12,29,24.80
2006,09,27,12,30,24.80
2006,09,27,12,31,24.70
2006,09,27,12,32,24.70
2006,09,27,12,33,24.60
2006,09,27,12,34,24.60
2006,09,27,12,35,24.70
2006,09,27,12,36,24.70
2006,09,27,12,37,24.70
2006,09,27,12,38,24.70
2006,09,27,12,39,24.80
2006,09,27,12,40,24.80
2006,09,27,12,41,24.80
2006,09,27,12,42,24.80
2006,09,27,12,43,24.70
2006,09,27,12,44,24.70
2006,09,27,12,45,24.80
2006,09,27,12,46,24.80
2006,09,27,12,47,24.90
2006,09,27,12,48,25.00
2006,09,27,12,49,25.10
2006,09,27,12,50,25.20
2006,09,27,12,51,25.20
2006,09,27,12,52,25.20
2006,09,27,12,53,25.20
2006,09,27,12,54,25.20
2006,09,27,12,55,25.20
2006,09,27,12,56,25.20
2006,09,27,12,57,25.20
2006,09,27,12,58,25.30
2006,09,27,12,59,25.30
2006,09,27,13,00,25.30
2006,09,27,13,01,25.30
2006,09,27,13,02,25.20
2006,09,27,13,03,25.20
2006,09,27,13,04,25.10
2006,09,27,13,05,25.10
2006,09,27,13,06,25.10
2006,09,27,13,07,25.10
2006,09,27,13,08,25.00
2006,09,27,13,09,25.00
2006,09,27,13,10,25.00
2006,09,27,13,11,25.10
2006,09,27,13,12,25.10
2006,09,27,13,13,25.00
2006,09,27,13,14,25.00
2006,09,27,13,15,25.00
2006,09,27,13,16,25.00
2006,09,27,13,17,25.00
2006,09,27,13,18,25.00
2006,09,27,13,19,25.00
2006,09,27,13,20,25.10
2006,09,27,13,21,25.10
2006,09,27,13,22,25.20
2006,09,27,13,23,25.30
2006,09,27,13,24,25.30
2006,09,27,13,25,25.40
2006,09,27,13,26,25.40
2006,09,27,13,27,25.50
2006,09,27,13,28,25.60
2006,09,27,13,29,25.60
2006,09,27,13,30,25.70
2006,09,27,13,31,25.70
2006,09,27,13,32,25.80
2006,09,27,13,33,25.80
2006,09,27,13,34,25.70
2006,09,27,13,35,25.70
2006,09,27,13,36,25.60
2006,09,27,13,37,25.60
2006,09,27,13,38,25.60
2006,09,27,13,39,25.70
2006,09,27,13,40,25.80
2006,09,27,13,41,25.80
2006,09,27,13,42,25.80
2006,09,27,13,43,25.80
2006,09,27,13,44,25.80
2006,09,27,13,45,25.80
2006,09,27,13,46,25.80
2006,09,27,13,47,25.80
2006,09,27,13,48,25.80
2006,09,27,13,49,25.80
2006,09,27,13,50,25.70
2006,09,27,13,51,25.70
2006,09,27,13,52,25.70
2006,09,27,13,53,25.80
2006,09,27,13,54,25.90
2006,09,27,13,55,25.90
2006,09,27,13,56,25.90
2006,09,27,13,57,25.90
2006,09,27,13,58,25.90
2006,09,27,13,59,25.90
2006,09,27,14,00,25.90
2006,09,27,14,01,25.90
2006,09,27,14,02,25.90
2006,09,27,14,03,25.90
2006,09,27,14,04,25.90
2006,09,27,14,05,25.90
2006,09,27,14,06,25.90
2006,09,27,14,07,26.00
2006,09,27,14,08,26.20
2006,09,27,14,09,26.20
2006,09,27,14,10,26.20
2006,09,27,14,11,26.10
2006,09,27,14,12,26.10
2006,09,27,14,13,26.10
2006,09,27,14,14,26.10
2006,09,27,14,15,26.10
2006,09,27,14,16,26.10
2006,09,27,14,17,26.20
2006,09,27,14,18,26.20
2006,09,27,14,19,26.20
2006,09,27,14,20,26.20
2006,09,27,14,21,26.30
2006,09,27,14,22,26.30
2006,09,27,14,23,26.30
2006,09,27,14,24,26.30
2006,09,27,14,25,26.20
2006,09,27,14,26,26.20
2006,09,27,14,27,26.10
2006,09,27,14,28,26.10
2006,09,27,14,29,26.10
2006,09,27,14,30,26.20
2006,09,27,14,31,26.20
2006,09,27,14,32,26.30
2006,09,27,14,33,26.30
2006,09,27,14,34,26.30
2006,09,27,14,35,26.40
2006,09,27,14,36,26.40
2006,09,27,14,37,26.40
2006,09,27,14,38,26.40
2006,09,27,14,39,26.30
2006,09,27,14,40,26.30
2006,09,27,14,41,26.40
2006,09,27,14,42,26.40
2006,09,27,14,43,26.50
2006,09,27,14,44,26.50
2006,09,27,14,45,26.50
2006,09,27,14,46,26.50
2006,09,27,14,47,26.50
2006,09,27,14,48,26.50
2006,09,27,14,49,26.50
2006,09,27,14,50,26.40
2006,09,27,14,51,26.40
2006,09,27,14,52,26.40
2006,09,27,14,53,26.40
2006,09,27,14,54,26.50
2006,09,27,14,55,26.50
2006,09,27,14,56,26.60
2006,09,27,14,57,26.70
2006,09,27,14,58,26.80
2006,09,27,14,59,26.80
2006,09,27,15,00,26.90
2006,09,27,15,01,26.90
2006,09,27,15,02,26.90
2006,09,27,15,03,26.90
2006,09,27,15,04,26.90
2006,09,27,15,05,26.80
2006,09,27,15,06,26.80
2006,09,27,15,07,26.70
2006,09,27,15,08,26.70
2006,09,27,15,09,26.70
2006,09,27,15,10,26.70
2006,09,27,15,11,26.70
2006,09,27,15,12,26.60
2006,09,27,15,13,26.60
2006,09,27,15,14,26.60
2006,09,27,15,15,26.60
2006,09,27,15,16,26.60
2006,09,27,15,17,26.60
2006,09,27,15,18,26.60
2006,09,27,15,19,26.60
2006,09,27,15,20,26.60
2006,09,27,15,21,26.60
2006,09,27,15,22,26.50
2006,09,27,15,23,26.50
2006,09,27,15,24,26.40
2006,09,27,15,25,26.40
2006,09,27,15,26,26.30
2006,09,27,15,27,26.30
2006,09,27,15,28,26.30
2006,09,27,15,29,26.30
2006,09,27,15,30,26.30
2006,09,27,15,31,26.30
2006,09,27,15,32,26.30
2006,09,27,15,33,26.30
2006,09,27,15,34,26.30
2006,09,27,15,35,26.30
2006,09,27,15,36,26.40
2006,09,27,15,37,26.40
2006,09,27,15,38,26.40
2006,09,27,15,39,26.30
2006,09,27,15,40,26.30
2006,09,27,15,41,26.30
2006,09,27,15,42,26.30
2006,09,27,15,43,26.30
2006,09,27,15,44,26.30
2006,09,27,15,45,26.30
2006,09,27,15,46,26.30
2006,09,27,15,47,26.30
2006,09,27,15,48,26.40
2006,09,27,15,49,26.40
2006,09,27,15,50,26.40
2006,09,27,15,51,26.40
2006,09,27,15,52,26.50
2006,09,27,15,53,26.50
2006,09,27,15,54,26.60
2006,09,27,15,55,26.60
2006,09,27,15,56,26.60
2006,09,27,15,57,26.50
2006,09,27,15,58,26.50
2006,09,27,15,59,26.50
2006,09,27,16,00,26.50
2006,09,27,16,01,26.40
2006,09,27,16,02,26.40
2006,09,27,16,03,26.40
2006,09,27,16,04,26.40
2006,09,27,16,05,26.30
2006,09,27,16,06,26.30
2006,09,27,16,07,26.30
2006,09,27,16,08,26.30
2006,09,27,16,09,26.30
2006,09,27,16,10,26.30
2006,09,27,16,11,26.30
2006,09,27,16,12,26.30
2006,09,27,16,13,26.30
2006,09,27,16,14,26.30
2006,09,27,16,15,26.30
2006,09,27,16,16,26.30
2006,09,27,16,17,26.30
2006,09,27,16,18,26.30
2006,09,27,16,19,26.30
2006,09,27,16,20,26.30
2006,09,27,16,21,26.30
2006,09,27,16,22,26.30
2006,09,27,16,23,26.30
2006,09,27,16,24,26.40
2006,09,27,16,25,26.40
2006,09,27,16,26,26.40
2006,09,27,16,27,26.40
2006,09,27,16,28,26.40
2006,09,27,16,29,26.40
2006,09,27,16,30,26.40
2006,09,27,16,31,26.40
2006,09,27,16,32,26.40
2006,09,27,16,33,26.40
2006,09,27,16,34,26.40
2006,09,27,16,35,26.40
2006,09,27,16,36,26.40
2006,09,27,16,37,26.30
2006,09,27,16,38,26.30
2006,09,27,16,39,26.30
2006,09,27,16,40,26.30
2006,09,27,16,41,26.30
2006,09,27,16,42,26.20
2006,09,27,16,43,26.20
2006,09,27,16,44,26.10
2006,09,27,16,45,26.10
2006,09,27,16,46,26.10
2006,09,27,16,47,26.10
2006,09,27,16,48,26.10
2006,09,27,16,49,26.10
2006,09,27,16,50,26.10
2006,09,27,16,51,26.10
2006,09,27,16,52,26.00
2006,09,27,16,53,26.00
2006,09,27,16,54,26.00
2006,09,27,16,55,26.00
2006,09,27,16,56,26.00
2006,09,27,16,57,25.90
2006,09,27,16,58,25.90
2006,09,27,16,59,25.90
2006,09,27,17,00,25.90
2006,09,27,17,01,25.90
2006,09,27,17,02,25.90
2006,09,27,17,03,25.90
2006,09,27,17,04,25.90
2006,09,27,17,05,25.90
2006,09,27,17,06,25.90
2006,09,27,17,07,25.90
2006,09,27,17,08,25.90
2006,09,27,17,09,25.90
2006,09,27,17,10,25.90
2006,09,27,17,11,25.90
2006,09,27,17,12,25.90
2006,09,27,17,13,25.80
2006,09,27,17,14,25.80
2006,09,27,17,15,25.70
2006,09,27,17,16,25.60
2006,09,27,17,17,25.50
2006,09,27,17,18,25.40
2006,09,27,17,19,25.40
2006,09,27,17,20,25.30
2006,09,27,17,21,25.30
2006,09,27,17,22,25.30
2006,09,27,17,23,25.30
2006,09,27,17,24,25.30
2006,09,27,17,25,25.30
2006,09,27,17,26,25.20
2006,09,27,17,27,25.20
2006,09,27,17,28,25.20
2006,09,27,17,29,25.10
2006,09,27,17,30,25.10